Regional Weather Roundup
Issued by NWS

Home | Current Version | Previous Version | Graphics & Text | Print | Product List | Glossary Off
Versions: 1 2 3 4 5 6 7 8 9 10 11 12 13 14 15 16 17 18 19 20 21 22 23 24 25 26 27 28 29 30 31 32 33 34 35 36 37 38 39 40 41 42 43 44 45 46 47 48 49 50

000
ASUS43 KMKX 171920
RWRWI

WISCONSIN REGIONAL WEATHER ROUNDUP
NATIONAL WEATHER SERVICE MILWAUKEE/SULLIVAN WI
100 PM CST WED JAN 17 2018

NOTE: "FAIR" INDICATES FEW OR NO CLOUDS BELOW 12,000 FEET WITH NO
SIGNIFICANT WEATHER AND/OR OBSTRUCTIONS TO VISIBILITY.

WIZ001-002-006>008-014>016-023>028-172000-
NORTHWEST WISCONSIN

CITY           SKY/WX    TMP DP  RH WIND       PRES   REMARKS
SUPERIOR ARPT  FAIR      22   4  44 SW13      30.00F WCI  10
ASHLAND        FAIR      24   5  44 SW24G32   29.95F WCI   8
HAYWARD        FAIR      21   3  45 SW15G22   30.04F WCI   8
SIREN          FAIR      20   4  49 SW17      30.09F WCI   6
CUMBERLAND     FAIR      18   3  53 SW18      30.10F HAZE    WCI   2
RICE LAKE      FAIR      21   5  50 S12G17    30.14F WCI   9
CHETEK         FAIR      21   4  48 SW8G18    30.14F WCI  12
LADYSMITH      FAIR      20   4  52 SW10G16   30.12F WCI   8
EAU CLAIRE     FLURRIES  21   5  50 SW16G23   30.18F WCI   7
MENOMONIE      FAIR      24   6  47 S14       30.18F WCI  11
NEW RICHMOND   FAIR      20   4  51 SW15      30.16F WCI   6
OSCEOLA        FAIR      22   8  54 S7        30.17F WCI  14
$$

WIZ003>005-009-010-017-018-172000-
NORTH CENTRAL WISCONSIN

CITY           SKY/WX    TMP DP  RH WIND       PRES   REMARKS
MANITOWISH WTR FAIR      19   3  49 SW13G21   29.97F HAZE    WCI   7
ARBOR VITAE    FAIR      22   8  56 SW14      29.99F WCI   9
WOODRUFF       FAIR      22   8  56 SW14      29.99F WCI   9
RHINELANDER    FAIR      19   6  57 SW14G24   30.02F WCI   6
EAGLE RIVER    FAIR      20   5  53 SW13      29.97F WCI   7
LAND O LAKES   FAIR      25   8  48 SW12G22   29.96F WCI  14
PHILLIPS       FAIR      19   4  52 SW14      30.04F WCI   5
TOMAHAWK       FAIR      19   4  53 SW9       30.07F WCI   7
MEDFORD        FAIR      16   2  55 SW12      30.12F WCI   3
MERRILL        FAIR      19   4  51 SW15      30.11F HAZE    WCI   5
$$

WIZ029-030-035-036-043>047-172000-
CENTRAL WISCONSIN

CITY           SKY/WX    TMP DP  RH WIND       PRES   REMARKS
WAUSAU         FAIR      17   2  51 SW10G22   30.13F WCI   5
MOSINEE        PTSUNNY   18   5  57 SW15G21   30.17F WCI   3
MARSHFIELD     FAIR      18   4  54 W15G24    30.16F WCI   4
STEVENS POINT  FAIR      18   3  50 SW14G21   30.18F WCI   5
WAUPACA        FAIR      24   6  45 SW16G22   30.21F WCI  11
WAUTOMA        FLURRIES  23   7  50 SW17      30.23F WCI   9
WISC RAPIDS    FAIR      20   2  45 W12G26    30.22F WCI   8
CAMP DOUGLAS   MOSUNNY   21   5  49 W15G26    30.26F WCI   8
$$

WIZ011>013-019>022-031-037>040-048>050-172000-
NORTHEAST WISCONSIN

CITY           SKY/WX    TMP DP  RH WIND       PRES   REMARKS
ANTIGO         FAIR      16   3  55 W21       30.08F WCI  -1
SHAWANO        FAIR      22   4  46 SW14G22   30.14F WCI   9
OCONTO         FAIR      20   5  51 W20G26    30.13F WCI   4
STURGEON BAY   FAIR      18   6  59 SW21G26   30.12F WCI   1
GREEN BAY      FAIR      21   4  47 SW16G29   30.19F WCI   7
MANITOWOC      FAIR      21   7  54 SW18G25   30.22F WCI   6
APPLETON       PTSUNNY   19   3  49 SW17      30.19F WCI   4
CLINTONVILLE   FAIR      19   3  49 W14G21    30.19F WCI   6
OSHKOSH        FAIR      20   6  55 SW12G23   30.23F WCI   8
$$

WIZ032>034-041-042-053>061-172000-
SOUTHWEST WISCONSIN

CITY           SKY/WX    TMP DP  RH WIND       PRES   REMARKS
LA CROSSE      FAIR      23   6  48 SW14      30.30F WCI  11
SPARTA         FAIR      23   5  45 W13G18    30.28F WCI  11
VIROQUA        FAIR      20   7  57 SW14G20   30.28F WCI   7
BOSCOBEL       FAIR      23   6  48 SW13G24   30.38F WCI  11
PRAIRIE DU CHI FAIR      21   4  47 SW10G23   30.39F WCI  10
PLATTEVILLE    FAIR      19  10  68 SW15G22   30.39F WCI   5
$$

WIZ056-057-062-063-064-067-068-172000-
SOUTH CENTRAL WISCONSIN

CITY           SKY/WX    TMP DP  RH WIND       PRES   REMARKS
REEDSBURG      FAIR      20   6  56 SW13      30.30F WCI   7
BARABOO/DELLS  FAIR      19   4  51 SW17      30.29F WCI   4
LONE ROCK      FAIR      20   7  57 SW13      30.36F WCI   7
MINERAL POINT  FAIR      19  10  68 SW14G23   30.35F WCI   6
MADISON        PTSUNNY   19   7  59 SW9G20    30.34F WCI   8
MIDDLETON      FAIR      24   9  52 SW14      30.34F WCI  11
WATERTOWN      FAIR      19   8  61 SW13      30.33F WCI   7
MONROE         FAIR      18   9  68 SW15      30.37F WCI   3
JANESVILLE     SUNNY     19   9  63 SW16G22   30.40F WCI   5
$$

WIZ051-052-058>065-066-070>072-172000-
SOUTHEAST WISCONSIN

CITY           SKY/WX    TMP DP  RH WIND       PRES   REMARKS
MILWAUKEE      FAIR      24   9  52 SW16G25   30.35F WCI  11
WAUKESHA       SUNNY     19   7  58 W18G28    30.35F WCI   4
MILWAUKEE/TIMM SUNNY     21   7  53 W16G31    30.34F WCI   7
RACINE         FAIR      20   8  60 W17G26    30.38F WCI   5
BURLINGTON     FAIR      19   7  60 W12G17    30.39F WCI   6
KENOSHA        FAIR      18   8  65 W16       30.38F WCI   3
FOND DU LAC    FAIR      18   4  54 SW16G23   30.26F WCI   3
SHEBOYGAN      FAIR      21   9  59 W17G29    30.25F WCI   7
WEST BEND      FAIR      19   9  63 W16G30    30.28F WCI   5
JUNEAU         FAIR      18   8  64 SW20G25   30.32F WCI   1
$$

LSZ147-162-172000-
LAKE SUPERIOR

STATION/POSITION TIME  TEMP    WIND        PRES    WAVE
                       AIR SEA DIR/SP/G            HT/PER
                 (UTC) (F)     (DEG/KT/KT) (MB)    (FT/S)
DEVILS ISLAND    1900   24     230/ 28/ 32 1013.3F
SAXON HARBOR     1830   27     210/ 16/ 26 1013.2F
$$

LMZ867-665-643>646-172000-
LAKE MICHIGAN

STATION/POSITION TIME  TEMP    WIND        PRES    WAVE
                       AIR SEA DIR/SP/G            HT/PER
                 (UTC) (F)     (DEG/KT/KT) (MB)    (FT/S)
NORTHPORT PIER   1840   17     230/  7/ 18 1019.0F
KEWAUNEE LAKESHO 1900   19     240/ 10/ 17 1021.4
SHEBOYGAN LAKESH 1900   22     230/ 19/ 24 1025.6F
PORT WASHINGTON  1830   22     250/ 10/ 16 1027.8F
MILWAUKEE LAKESH 1900   22     260/ 18/ 21   N/A
KENOSHA   LAKESH 1900   19     250/ 17/ 22 1029.1
$$

TC  - TEMPERATURE IN CELSIUS
VSB - VISIBILITY IN STATUTE MILES
WCI - WIND CHILL INDEX
HX  - HEAT INDEX





USA.gov is the U.S. government's official web portal to all federal, state and local government web resources and services.